Flag for Canada Weather past 2 weeks in Québec, Quebec, Canada

Now
66 °F

Passing clouds.


Feels Like: 66 °F
Forecast: 54 / 72 °F
Wind: 8 mph from Southwest

Location: Quebec Weather Station

Current Time: May 28, 2015 at 4:47:25 AM

Latest Report: May 28, 2015 at 4:00 AM


Visibility: 15 mi

Pressure: 29.89 "Hg

Humidity: 88%

Dew point: 63 °F

Location of QuébecLocation

Historic Weather in Québec — Graph

°F

Québec temperature yesterday

Maximum temperature yesterday: 77 °F (at 5:00 PM)
Minimum temperature yesterday: 57 °F (at 9:00 AM)
Average temperature yesterday: 67 °F

Past Weeks' High & Low Weather Summary

 TemperatureHumidityPressure
High81 °F (May 26, 6:00 PM)100% (May 19, 12:00 AM)30.33 "Hg (May 19, 12:00 AM)
Low32 °F (May 23, 2:00 AM)26% (May 14, 4:00 PM)29.52 "Hg (May 19, 8:00 PM)
Average57 °F66%29.98 "Hg
* Reported May 13 4:00 AM — May 28 4:00 AM, Québec, Weather by CustomWeather, © 2015

Note: Actual official high and low records may vary slightly from our data, if they occured in-between our weather recording intervals... More about our weather records

Advertising

Québec weather history for previous 24 hours

 ConditionsComfort  
Time TempWeatherWind HumidityBarometerVisibility
4:00 AM
Thu, May 28
66 °FPassing clouds.8 mph88%29.89 "Hg15 mi
3:00 AM64 °FPassing clouds.7 mph94%29.88 "Hg15 mi
2:00 AM64 °FPassing clouds.5 mph94%29.88 "Hg15 mi
1:00 AM64 °FPassing clouds.5 mph88%29.88 "Hg15 mi
12:00 AM66 °FPassing clouds.5 mph88%29.90 "Hg15 mi
11:00 PM
Wed, May 27
66 °FPassing clouds.9 mph88%29.90 "Hg15 mi
10:00 PM70 °FPassing clouds.8 mph83%29.88 "Hg15 mi
9:00 PM70 °FScattered clouds.9 mph83%29.88 "Hg15 mi
8:00 PM75 °FScattered clouds.10 mph78%29.85 "Hg25 mi
7:00 PM77 °FBroken clouds.12 mph79%29.83 "Hg25 mi
6:00 PM77 °FBroken clouds.18 mph79%29.84 "Hg25 mi
5:00 PM77 °FBroken clouds.16 mph79%29.85 "Hg20 mi
4:00 PM75 °FBroken clouds.13 mph89%29.87 "Hg15 mi
3:00 PM73 °FSprinkles. Broken clouds.13 mph89%29.88 "Hg8 mi
2:00 PM72 °FThunderstorms. Fog.5 mph83%29.88 "Hg2 mi
1:52 PM73 °FPartly sunny.2 mph78%29.89 "Hg15 mi
1:00 PM70 °FPartly sunny.3 mph78%29.90 "Hg15 mi
12:00 PM68 °FBroken clouds.8 mph88%29.94 "Hg15 mi
11:00 AM64 °FScattered clouds.8 mph83%29.96 "Hg15 mi
10:00 AM61 °FMostly cloudy.9 mph94%29.98 "Hg10 mi
9:00 AM57 °FFog.9 mph100%30.00 "Hg2 mi
8:00 AM59 °FFog.8 mph94%30.02 "Hg2 mi
7:02 AM59 °FSprinkles. Fog.6 mph100%30.01 "Hg2 mi
6:00 AM63 °FFog.7 mph94%30.00 "Hg6 mi
5:00 AM61 °FPassing clouds.No wind100%30.00 "Hg15 mi
4:00 AM61 °FPassing clouds.3 mph100%29.98 "Hg15 mi
Weather by CustomWeather, © 2015

See weather overviewHow to use our weather pages